Total_Precipitation_Accumulation
2.65 2.87 3.45 3.15 2.56 2.46 2.37 2.17 2.07 1.99 2.07 2.05 2.04 1.90 1.82 1.91 2.11 2.42 2.68 2.80 2.81 2.72 2.60 2.69 2.73 2.82 2.71 2.60 2.42 2.22 2.13 1.93 1.87 1.83 1.77 1.76 1.79 1.95 2.28 2.39 2.39 1.69 1.63
2.08 2.34 2.97 2.84 2.41 2.23 2.13 1.99 1.95 1.99 2.02 1.96 2.07 2.01 2.04 2.19 2.37 2.56 2.82 2.85 2.68 2.49 2.39 2.41 2.41 2.43 2.36 2.29 2.21 2.11 2.16 2.11 2.02 2.20 2.18 1.96 1.89 2.02 2.20 2.21 2.29 1.58 1.50
1.68 1.93 2.26 2.43 2.12 1.90 1.89 1.84 1.87 1.96 1.96 1.92 1.99 2.05 2.13 2.39 2.63 2.80 2.78 2.58 2.43 2.32 2.19 2.21 2.19 2.07 2.01 1.90 1.94 1.95 2.14 2.30 2.38 2.63 2.92 2.01 1.63 2.04 2.00 1.89 1.71 1.53 1.45
1.49 1.64 1.91 2.23 2.01 1.75 1.81 1.84 1.94 1.95 1.87 1.83 1.90 2.02 2.23 2.56 2.77 2.75 2.54 2.39 2.31 2.15 2.04 2.03 2.06 1.95 1.78 1.68 1.74 1.85 2.10 2.23 2.39 2.80 2.75 1.87 1.39 1.59 1.67 1.62 1.47 1.47 1.36
1.48 1.63 2.03 2.22 2.04 1.91 1.90 1.97 1.96 1.87 1.83 1.88 2.02 2.26 2.56 2.64 2.63 2.48 2.31 2.17 2.05 1.89 1.87 1.84 1.93 1.91 1.74 1.64 1.71 1.85 2.04 2.22 2.56 2.45 1.82 1.90 1.77 1.66 1.50 1.50 1.47 1.40 1.25
1.52 1.68 1.92 2.13 1.98 1.91 1.82 1.84 1.93 1.96 1.94 1.99 2.04 2.23 2.44 2.44 2.40 2.25 2.04 1.90 1.83 1.69 1.63 1.71 1.92 1.97 1.75 1.69 1.72 1.79 2.09 2.34 2.35 1.70 1.43 1.52 1.66 1.74 1.57 1.66 1.64 1.46 1.26
1.41 1.60 1.70 2.04 2.11 2.02 1.91 1.94 1.98 1.99 1.98 1.94 1.92 2.05 2.11 2.17 2.22 2.03 1.79 1.73 1.69 1.50 1.46 1.77 2.00 1.93 1.67 1.62 1.69 1.79 2.09 2.39 1.87 1.45 1.38 1.46 1.59 1.66 1.76 1.92 1.97 1.73 1.44
1.37 1.49 1.60 1.96 2.17 2.17 2.03 2.00 1.93 1.98 2.04 1.92 1.86 1.96 1.93 1.85 1.94 1.85 1.64 1.59 1.53 1.46 1.58 1.85 1.95 1.79 1.60 1.60 1.75 1.85 2.01 2.00 1.40 1.29 1.19 1.22 1.29 1.49 1.80 1.99 2.05 1.92 1.75
1.42 1.50 1.73 1.98 2.00 1.99 2.13 2.04 1.97 1.98 2.08 2.05 1.92 1.92 1.86 1.70 1.65 1.58 1.62 1.64 1.51 1.60 1.80 1.95 1.90 1.72 1.57 1.64 1.74 1.85 1.95 2.00 1.62 1.40 1.13 1.15 1.25 1.59 2.12 2.22 2.08 1.97 1.90
1.74 1.63 1.76 1.90 1.77 1.67 1.73 1.85 1.82 1.78 1.79 1.87 1.87 1.82 1.88 1.86 1.69 1.62 1.59 1.64 1.68 1.74 1.99 2.06 1.97 1.82 1.60 1.62 1.78 1.96 2.03 1.90 1.74 1.45 1.24 1.11 1.29 1.70 2.19 2.33 2.27 2.20 2.04
1.97 1.87 1.74 1.63 1.57 1.53 1.38 1.42 1.65 1.75 1.73 1.79 1.83 1.79 1.86 1.98 1.73 1.76 1.71 1.94 2.00 1.96 2.18 2.35 2.32 2.11 1.89 1.79 1.97 2.14 1.94 1.82 1.77 1.54 1.32 1.19 1.43 1.82 2.18 2.31 2.27 2.24 2.12
2.19 1.96 1.87 1.74 1.54 1.33 1.16 1.36 1.75 1.60 1.65 1.77 1.93 1.91 2.08 2.28 2.29 1.73 1.91 2.28 2.47 2.55 2.63 2.77 2.78 2.38 2.00 1.88 2.37 2.57 1.88 1.71 1.73 1.64 1.51 1.50 1.79 2.11 2.39 2.32 2.22 2.26 2.12
2.52 2.27 2.16 1.96 1.67 1.40 1.47 1.35 1.53 1.73 1.86 1.90 1.91 1.97 2.16 2.01 1.84 1.74 2.02 2.41 2.66 2.67 2.65 2.89 2.88 2.47 2.48 2.71 2.66 2.43 1.90 2.02 2.07 1.99 1.92 2.05 2.22 2.53 2.89 2.68 2.36 2.30 2.25
2.65 2.53 2.56 2.19 2.00 1.99 1.77 1.48 1.38 1.40 1.55 1.78 2.08 2.06 2.16 2.39 2.31 2.24 2.42 2.46 2.56 2.79 3.23 3.04 3.19 3.07 3.04 2.91 2.77 2.58 2.35 2.48 2.40 2.49 2.39 2.20 2.29 2.66 3.20 3.23 2.81 2.51 2.34
2.62 2.65 2.72 2.52 2.32 2.37 2.14 1.90 1.65 1.76 1.75 1.85 2.06 2.21 2.15 2.48 2.73 2.76 2.75 2.71 2.57 2.66 2.92 3.09 3.05 3.37 3.54 3.13 2.73 2.55 2.59 2.69 2.59 2.58 2.41 2.26 2.24 2.46 2.93 3.23 3.17 2.99 2.72
2.87 2.93 2.75 2.69 2.68 2.66 2.56 2.50 2.41 2.15 2.25 2.17 2.19 2.20 2.25 2.56 2.97 3.16 3.10 3.00 2.81 2.75 2.86 3.02 3.17 3.63 3.58 3.41 3.00 2.73 2.64 2.61 2.45 2.38 2.47 2.63 2.46 2.39 2.57 2.99 3.37 3.37 3.25
3.21 3.26 3.26 3.21 3.33 3.28 3.12 3.00 2.76 2.56 2.45 2.47 2.57 2.61 2.52 2.64 2.98 3.01 2.86 2.75 2.76 2.84 3.01 3.04 3.24 3.45 3.15 3.17 3.01 2.78 2.57 2.36 2.21 2.20 2.39 2.59 2.45 2.40 2.59 2.86 3.18 3.34 3.52
3.39 3.58 3.77 3.72 3.73 3.57 3.58 3.55 3.27 3.02 2.85 2.71 2.66 2.71 2.56 2.57 2.72 3.00 2.78 2.65 2.95 2.94 3.06 3.36 3.50 3.43 3.38 3.40 3.16 2.77 2.52 2.42 2.09 1.99 1.97 2.15 2.39 2.17 2.49 2.79 2.90 3.09 3.52
3.78 4.07 4.29 4.29 4.14 3.87 3.92 3.89 3.72 3.57 3.27 2.91 2.74 2.66 2.55 2.54 2.69 3.02 3.03 3.12 3.15 3.24 3.27 3.10 3.53 3.59 3.49 3.51 3.07 2.86 2.53 2.25 2.07 1.89 1.81 1.80 2.03 2.25 2.39 2.47 2.60 2.80 3.34
4.27 4.68 4.54 4.48 4.69 4.54 4.40 4.27 4.00 3.53 3.10 2.95 2.92 2.73 2.60 2.67 2.79 3.24 3.11 3.09 3.15 3.33 3.41 3.38 3.54 3.58 3.30 3.26 2.93 2.87 2.47 1.99 1.90 1.86 1.69 1.71 1.84 1.89 2.23 2.55 2.80 2.55 2.89
4.32 4.72 4.89 4.93 4.84 4.67 4.33 4.01 3.77 3.54 3.32 3.06 2.87 2.78 2.70 2.60 2.82 3.31 3.11 3.37 3.29 3.29 3.33 3.38 3.52 3.44 3.14 3.33 3.41 3.00 2.41 1.99 1.95 1.73 1.67 1.73 1.79 1.79 2.17 2.62 2.87 2.79 2.51
3.95 4.41 4.73 4.92 4.79 4.41 4.06 3.89 3.79 3.75 3.36 3.06 3.04 3.18 2.99 2.99 3.04 3.09 3.31 3.25 3.29 3.42 3.38 3.37 3.53 3.32 2.96 3.25 3.61 3.68 2.98 2.56 2.08 1.58 1.68 1.80 1.96 2.06 2.15 2.31 2.52 2.79 2.79
3.51 3.81 3.92 4.10 4.07 3.91 3.96 3.98 3.94 3.97 3.57 3.49 3.49 3.49 3.27 3.25 3.26 3.28 3.25 3.16 3.18 2.99 3.07 3.17 3.21 3.23 3.16 3.12 3.45 3.79 3.34 2.85 2.46 1.85 1.72 1.75 2.01 2.34 2.35 2.37 2.42 2.72 2.89
3.08 3.41 3.63 3.69 3.65 3.57 3.69 3.76 3.66 3.49 3.38 3.54 3.82 3.75 3.47 3.24 3.10 2.91 2.86 3.02 3.05 2.82 2.88 2.55 2.71 2.91 2.94 2.80 3.09 3.15 3.17 3.17 3.07 2.39 1.94 1.78 1.93 2.15 2.32 2.25 2.30 2.57 2.87
2.76 3.03 3.25 3.51 3.61 3.54 3.61 3.59 3.61 3.46 3.46 3.53 3.55 3.60 3.40 3.20 2.88 2.53 2.55 2.73 2.69 2.60 2.53 2.44 2.62 2.50 2.45 2.52 2.76 2.94 3.01 3.10 2.98 2.80 2.37 2.33 2.28 2.12 2.08 2.14 2.37 2.53 2.77
2.45 2.57 2.68 2.89 3.16 3.33 3.36 3.32 3.38 3.32 3.30 3.26 3.24 3.13 2.93 2.78 2.58 2.28 2.16 2.32 2.42 2.47 2.43 2.42 2.50 2.40 2.42 2.56 2.57 2.64 2.88 2.88 2.84 3.00 2.58 2.44 2.44 2.18 2.12 2.23 2.26 2.48 2.61